Flag for Romania Weather past 2 weeks in Oradea, Romania

Now
72 °F

Partly sunny.


Feels Like: 72 °F
Forecast: 46 / 69 °F
Wind: 16 mph from Southwest

Location: Oradea Airport

Current Time: Aug 27, 2014 at 4:16:40 PM

Latest Report: Aug 27, 2014 at 3:00 PM


Visibility: N/A

Pressure: 29.80 "Hg

Humidity: 78%

Dew point: 64 °F

Location of OradeaLocation

Historic Weather in Oradea — Graph

°F

Oradea temperature yesterday

Maximum temperature yesterday: 77 °F (at 5:30 PM)
Minimum temperature yesterday: 50 °F (at 3:00 AM)
Average temperature yesterday: 65 °F

Past Weeks' High & Low Weather Summary

 TemperatureHumidityPressure
High91 °F (Aug 13, 4:30 PM)100% (Aug 15, 3:00 AM)30.12 "Hg (Aug 15, 3:00 AM)
Low50 °F (Aug 18, 6:30 AM)31% (Aug 22, 4:00 PM)29.74 "Hg (Aug 14, 1:00 AM)
Average69 °F71%29.94 "Hg
* Reported Aug 12 3:00 PM — Aug 27 3:00 PM, Oradea, Weather by CustomWeather, © 2014

Note: Actual official high and low records may vary slightly from our data, if they occured in-between our weather recording intervals... More about our weather records

Advertising

Oradea weather history for previous 24 hours

 ConditionsComfort  
Time TempWeatherWind HumidityBarometerVisibility
3:00 PM
Aug 27
72 °FPartly sunny.16 mph78%29.80 "HgN/A
2:00 PM70 °FPassing clouds.14 mph88%29.80 "HgN/A
1:30 PM70 °FPartly sunny.12 mph88%29.80 "HgN/A
1:00 PM68 °FSprinkles. Broken clouds.14 mph94%29.80 "HgN/A
12:30 PM66 °FLight rain. Partly sunny.12 mph100%29.80 "HgN/A
11:30 AM66 °FLight rain. Partly sunny.12 mph100%29.83 "Hg4 mi
11:00 AM66 °FLight rain. Partly sunny.14 mph100%29.80 "Hg6 mi
10:30 AM66 °FLight rain. Partly sunny.12 mph100%29.80 "Hg5 mi
9:30 AM66 °FLight rain. Partly sunny.14 mph100%29.80 "HgN/A
9:00 AM66 °FPartly sunny.14 mph94%29.80 "HgN/A
8:30 AM66 °FPartly sunny.12 mph94%29.77 "HgN/A
8:00 AM66 °FPartly sunny.12 mph88%29.77 "HgN/A
7:30 AM66 °FPassing clouds.12 mph88%29.80 "HgN/A
7:00 AM66 °FPassing clouds.7 mph88%29.80 "HgN/A
6:30 AM66 °FPassing clouds.7 mph88%29.80 "HgN/A
6:00 AM66 °FPassing clouds.7 mph88%29.80 "HgN/A
5:30 AM66 °FPassing clouds.7 mph88%29.80 "HgN/A
5:00 AM66 °FSprinkles. Passing clouds.9 mph88%29.80 "HgN/A
4:00 AM66 °FMostly cloudy.7 mph83%29.80 "HgN/A
3:00 AM64 °FPartly cloudy.5 mph88%29.80 "HgN/A
2:00 AM64 °FPassing clouds.7 mph88%29.83 "HgN/A
1:00 AM64 °FPartly cloudy.7 mph88%29.83 "HgN/A
12:00 AM66 °FPassing clouds.7 mph83%29.83 "HgN/A
11:00 PM
Aug 26
68 °FPartly cloudy.9 mph78%29.83 "HgN/A
10:30 PM68 °FClear.7 mph78%29.83 "Hg10 mi
10:00 PM72 °FClear.9 mph65%29.83 "Hg10 mi
9:30 PM72 °FClear.7 mph65%29.83 "Hg10 mi
9:00 PM70 °FSunny.7 mph73%29.83 "Hg10 mi
8:30 PM72 °FSunny.7 mph69%29.80 "Hg10 mi
8:00 PM72 °FSunny.7 mph69%29.80 "Hg10 mi
7:30 PM73 °FSunny.7 mph61%29.80 "Hg10 mi
7:00 PM75 °FSunny.9 mph57%29.80 "Hg10 mi
6:30 PM75 °FSunny.12 mph57%29.80 "Hg10 mi
6:00 PM75 °FSunny.12 mph57%29.80 "Hg10 mi
5:30 PM77 °FSunny.16 mph51%29.80 "Hg10 mi
5:00 PM75 °FSunny.12 mph57%29.83 "Hg10 mi
4:30 PM75 °FSunny.9 mph57%29.83 "Hg10 mi
4:00 PM75 °FSunny.12 mph57%29.83 "Hg10 mi
Weather by CustomWeather, © 2014

See weather overviewHow to use our weather pages